| time (UTC) | temp F | wind direction | speed knots | gust knots | rain 1hr in | rain 24hr in | rain mn in | humidity % | barometer mb |
| 20260503224601 | 54 | 225 | 0.0 | 1.7 | 0.00 | 0.00 | 0.00 | 72 | 1019.0 |
| 20260503223052 | 54 | 225 | 0.0 | 1.7 | 0.00 | 0.00 | 0.00 | 71 | 1019.0 |
| 20260503221600 | 54 | 225 | 0.9 | 1.7 | 0.00 | 0.00 | 0.00 | 71 | 1019.1 |
| 20260503220049 | 54 | 225 | 0.9 | 3.5 | 0.00 | 0.00 | 0.00 | 70 | 1019.0 |
| 20260503214548 | 55 | 227 | 1.7 | 5.2 | 0.00 | 0.00 | 0.00 | 70 | 1019.0 |
| 20260503213048 | 55 | 352 | 0.0 | 0.0 | 0.00 | 0.00 | 0.00 | 73 | 1018.9 |
| 20260503211549 | 56 | 352 | 0.0 | 2.6 | 0.00 | 0.00 | 0.00 | 70 | 1018.9 |
| 20260503210045 | 57 | 352 | 0.0 | 0.9 | 0.00 | 0.00 | 0.00 | 71 | 1018.7 |
| 20260503204601 | 57 | 352 | 0.0 | 0.9 | 0.00 | 0.00 | 0.00 | 70 | 1018.7 |
| 20260503203046 | 58 | 352 | 0.0 | 1.7 | 0.00 | 0.00 | 0.00 | 68 | 1018.7 |
| 20260503201544 | 59 | 352 | 0.0 | 0.9 | 0.00 | 0.00 | 0.00 | 66 | 1018.5 |
| 20260503200044 | 60 | 352 | 0.0 | 1.7 | 0.00 | 0.00 | 0.00 | 64 | 1018.5 |
| 20260503194546 | 60 | 352 | 0.0 | 0.0 | 0.00 | 0.00 | 0.00 | 62 | 1018.3 |
| 20260503193047 | 61 | 352 | 0.0 | 0.0 | 0.00 | 0.00 | 0.00 | 61 | 1018.2 |
| 20260503191604 | 62 | 352 | 0.0 | 0.9 | 0.00 | 0.00 | 0.00 | 58 | 1018.1 |
| 20260503190046 | 63 | 352 | 0.0 | 0.0 | 0.00 | 0.00 | 0.00 | 55 | 1018.0 |
| 20260503184541 | 63 | 352 | 0.0 | 0.0 | 0.00 | 0.00 | 0.00 | 54 | 1017.9 |
| 20260503183040 | 64 | 352 | 0.0 | 0.0 | 0.00 | 0.00 | 0.00 | 51 | 1017.8 |
| 20260503181548 | 65 | 352 | 0.0 | 0.0 | 0.00 | 0.00 | 0.00 | 49 | 1017.7 |
| 20260503180041 | 66 | 352 | 0.0 | 0.9 | 0.00 | 0.00 | 0.00 | 46 | 1017.7 |
| 20260503174546 | 67 | 352 | 0.0 | 0.9 | 0.00 | 0.00 | 0.00 | 45 | 1017.7 |
| 20260503173040 | 68 | 352 | 0.9 | 1.7 | 0.00 | 0.00 | 0.00 | 41 | 1017.6 |
| 20260503171536 | 70 | 352 | 0.0 | 2.6 | 0.00 | 0.00 | 0.00 | 41 | 1017.7 |
| 20260503081555 | 67 | 281 | 5.2 | 15.6 | 0.00 | 0.00 | 0.00 | 42 | 1019.4 |
| 20260503080103 | 67 | 295 | 4.3 | 13.9 | 0.00 | 0.00 | 0.00 | 43 | 1019.5 |
| 20260503071603 | 66 | 319 | 6.1 | 13.0 | 0.00 | 0.00 | 0.00 | 44 | 1019.5 |
| 20260503054544 | 60 | 309 | 0.9 | 3.5 | 0.00 | 0.00 | 0.00 | 53 | 1019.5 |
| 20260503053030 | 58 | 229 | 0.0 | 2.6 | 0.00 | 0.00 | 0.00 | 56 | 1019.3 |
| 20260503051522 | 56 | 221 | 0.0 | 2.6 | 0.00 | 0.00 | 0.00 | 58 | 1019.2 |
| 20260503050019 | 55 | 220 | 0.0 | 2.6 | 0.00 | 0.00 | 0.00 | 60 | 1019.3 |
| 20260503044514 | 54 | 225 | 0.0 | 1.7 | 0.00 | 0.00 | 0.00 | 60 | 1019.2 |
| 20260503043012 | 53 | 224 | 0.9 | 2.6 | 0.00 | 0.00 | 0.00 | 61 | 1019.2 |
| 20260503041512 | 52 | 225 | 0.9 | 2.6 | 0.00 | 0.00 | 0.00 | 62 | 1019.2 |
| 20260503040011 | 52 | 225 | 0.9 | 2.6 | 0.00 | 0.00 | 0.00 | 62 | 1019.3 |
| 20260503034511 | 51 | 248 | 0.9 | 1.7 | 0.00 | 0.00 | 0.00 | 64 | 1019.2 |
| 20260503033009 | 51 | 224 | 0.0 | 1.7 | 0.00 | 0.00 | 0.00 | 64 | 1019.2 |
| 20260503031508 | 51 | 224 | 0.0 | 0.9 | 0.00 | 0.00 | 0.00 | 64 | 1019.3 |
| 20260503030007 | 51 | 224 | 0.0 | 1.7 | 0.00 | 0.00 | 0.00 | 63 | 1019.3 |
| 20260503024506 | 52 | 224 | 0.0 | 0.9 | 0.00 | 0.00 | 0.00 | 62 | 1019.4 |
| 20260503023005 | 52 | 224 | 0.9 | 1.7 | 0.00 | 0.00 | 0.00 | 61 | 1019.4 |
| 20260503021504 | 52 | 210 | 0.0 | 1.7 | 0.00 | 0.00 | 0.00 | 61 | 1019.3 |
| 20260503020003 | 53 | 226 | 0.0 | 1.7 | 0.00 | 0.00 | 0.00 | 61 | 1019.4 |
| 20260503014502 | 53 | 227 | 0.0 | 2.6 | 0.00 | 0.00 | 0.00 | 60 | 1019.4 |
| 20260503013103 | 53 | 218 | 0.9 | 6.1 | 0.00 | 0.00 | 0.00 | 60 | 1019.6 |
| 20260503011559 | 53 | 219 | 0.9 | 3.5 | 0.00 | 0.00 | 0.00 | 60 | 1019.7 |
| 20260503010057 | 53 | 214 | 0.9 | 4.3 | 0.00 | 0.00 | 0.00 | 60 | 1019.8 |
| 20260503004558 | 53 | 221 | 1.7 | 6.1 | 0.00 | 0.00 | 0.00 | 60 | 1020.0 |
| 20260503003056 | 53 | 201 | 1.7 | 3.5 | 0.00 | 0.00 | 0.00 | 60 | 1020.1 |
| 20260503001553 | 53 | 141 | 0.9 | 4.3 | 0.00 | 0.00 | 0.00 | 60 | 1020.1 |
| 20260503000051 | 53 | 292 | 1.7 | 5.2 | 0.00 | 0.00 | 0.00 | 60 | 1020.4 |
| 20260502234554 | 53 | 230 | 1.7 | 5.2 | 0.00 | 0.00 | 0.00 | 60 | 1020.6 |
| 20260502233046 | 53 | 224 | 0.9 | 3.5 | 0.00 | 0.00 | 0.00 | 62 | 1020.9 |
| 20260502231545 | 53 | 232 | 0.9 | 4.3 | 0.00 | 0.00 | 0.00 | 62 | 1021.0 |
| 20260502230045 | 52 | 224 | 0.9 | 4.3 | 0.00 | 0.00 | 0.00 | 65 | 1021.1 |